View from above orbital plane
|
View from above satellite
|
Ground track
|
The orbit data is extracted from the following two-line orbital elements,
1 29093U 06015B 21057.84399607 .00005506 00000-0 10175-3 0 9999
2 29093 97.6318 243.9517 0052368 119.0722 241.5787 15.47997132825812
Epoch (UTC): | 26 February 2021 20:15:21 |
Eccentricity: | 0.0052368 |
inclination: | 97.6318° |
perigee height: | 387 km |
apogee height: | 458 km |
right ascension of ascending node: | 243.9517° |
argument of perigee: | 119.0722° |
revolutions per day: | 15.47997132 |
mean anomaly at epoch: | 241.5787° |
orbit number at epoch: | 82581 |
The dashed part of the orbit path shows where the satellite is in the earth's shadow,
|
|